Location: Skalnate Pleso
(49.1889°N, 20.2450°E)
Time: 23:21:57
(UTC+02:00)

COSMOS 2428 - Pass Details

Date: 23 February 2020
Orbit: 846 x 856 km, 70.9° (Epoch: 09 April)

Event Time Altitude Azimuth Distance (km) Brightness Sun altitude
Exits shadow 04:16:48 11° 329° (NNW) 2,403 4.9 -23.1°
Maximum altitude 04:17:27 12° 336° (NNW) 2,390 4.9 -23.0°
Drops below altitude 10° 04:19:20 10° 355° (N) 2,500 5.2 -22.7°
Sets 04:23:52 0° 28° (NNE) 3,439 6.4 -22.0°
